Other Public Products
Issued by NWS Grand Forks, ND

Home | Current Version | Previous Version | Text Only | Print | Product List | Glossary On
Versions: 1 2 3 4 5 6 7 8 9 10 11 12 13 14 15 16 17 18 19 20 21 22 23 24 25 26 27 28 29 30 31 32 33 34 35 36 37 38 39 40 41 42 43 44 45 46 47 48 49 50
000
FPUS83 KFGF 211510
OPUFGF
PRAIRIE TO PINES WEATHER ROUNDUP
NATIONAL WEATHER SERVICE EASTERN NORTH DAKOTA/GRAND FORKS ND
900 AM CST SUN DEC 21 2014

 **SATELLITE DATA USED TO AUGMENT SKY COVER AT AUTOMATED STATIONS**
 *****  WEATHER ACROSS EASTERN NORTH DAKOTA  *****

CITY           SKY/WX    TMP DP  RH WIND       PRES   REMARKS
GRAND FORKS    CLOUDY    30  29  96 S14       29.69F FOG     WCI  19
GRAND FORKS AF CLOUDY    29  29 100 S15       29.68F WCI  18
GRAND CITY NWS   N/A     30 N/A N/A S20         N/A  WCI  18
BUXTON         NOT AVBL
DEVILS LAKE    CLEAR     18  10  73 SE7       29.60S WCI   8
FARGO          CLOUDY    32  28  85 S15G24    29.73F FOG     WCI  22
WAHPETON ARPT  CLOUDY    32  28  86 S10       29.75S WCI  24
$$

 *****  WEATHER ACROSS CENTRAL AND WESTERN NORTH DAKOTA  *****

CITY           SKY/WX    TMP DP  RH WIND       PRES   REMARKS
JAMESTOWN      FOG       27  24  89 S9        29.63F VSB 1/4 WCI  18
BISMARCK       CLEAR     18  16  92 SE6       29.59F WCI  10
MINOT          CLEAR     15  13  91 E3        29.53F
MINOT AFB      CLEAR     12  12  99 SE6       29.52F WCI   3
GARRISON         N/A     19  16  88 CALM      29.53F
WILLISTON      PTCLDY    15  13  91 CALM      29.47F
DICKINSON      CLEAR     28  22  78 S13       29.46F WCI  17
HETTINGER      CLEAR     23  19  85 SE5       29.51F WCI  17
$$

 *****  OTHER OBSERVATIONS NORTHEAST NORTH DAKOTA  *****

CITY           SKY/WX    TMP DP  RH WIND       PRES   REMARKS
WALHALLA         N/A     27  27 100 S8        29.64F FOG     WCI  18
LANGDON        FOG       23  19  86 N5        29.59F VSB<1/4 WCI  17
CAVALIER       CLOUDY    27  27 100 S12       29.65F FOG     WCI  16
GRAFTON        NOT AVBL
CANDO          FAIR      14  10  85 SE7       29.60S WCI   4
FORT TOTTEN    NOT AVBL
ROLLA          FAIR      16  16 100 MISG      29.56F
RUGBY          FAIR      16  16 100 SE5       29.58S WCI   9
 ***** THE ABOVE OBSERVATIONS ARE NON NWS ARE NOT QUALITY
        CONTROLLED AND MAY MIS-REPORT RAIN FOR SNOW...
$$

 *****  OTHER OBSERVATIONS SOUTHEAST NORTH DAKOTA *****

CITY           SKY/WX    TMP DP  RH WIND       PRES   REMARKS
COOPERSTOWN    NOT AVBL
VALLEY CITY    FOG       27  27 100 S18       29.66F VSB<1/4 WCI  13
OAKES          FOG       30  30 100 S13       29.66F VSB 1/2 WCI  20
GWINNER        CLOUDY    32  32 100 MISG      29.69F
BUFFALO        NOT AVBL
WYNDMERE         N/A     30  28  93 SE7         N/A  WCI  23
 ***** THE ABOVE OBSERVATIONS ARE NON NWS ARE NOT QUALITY
       CONTROLLED AND MAY MIS-REPORT RAIN FOR SNOW...
$$

  *****  WEATHER ACROSS NORTHERN MINNESOTA  *****

CITY           SKY/WX    TMP DP  RH WIND       PRES   REMARKS
FLAG ISLAND    LGT SNOW  28  27  93 SE16      29.72F WCI  17
WARROAD        CLOUDY    30  27  86 SE7       29.73S FOG     WCI  23
ROSEAU         CLOUDY    30  27  86 S10       29.71S WCI  21
HALLOCK        CLOUDY    30  30 100 CALM      29.67F FOG
THF RVR FALLS  CLOUDY    30  28  93 S14       29.72S WCI  20
HALSTAD          N/A     31  28  91 S20         N/A  WCI  18
FOSSTON        CLOUDY    28  27  93 S16       29.73S FOG     WCI  17
BAUDETTE       LGT SNOW  29  27  92 S8        29.74F FOG     WCI  21
WASKISH        CLOUDY    30  28  93 CALM      29.75F FOG
CROOKSTON      CLOUDY    30  28  93 S22       29.73S FOG     WCI  17
$$
  *****  WEATHER ACROSS CENTRAL AND WEST MINNESOTA  *****

CITY           SKY/WX    TMP DP  RH WIND       PRES   REMARKS
BEMIDJI        CLOUDY    29  28  96 S12       29.75S FOG     WCI  19
PARK RAPIDS    CLOUDY    30  28  92 S13       29.76F FOG     WCI  20
WADENA         CLOUDY    28  28 100 S13       29.77F FOG     WCI  18
DETROIT LAKES  CLOUDY    30  30 100 S15G21    29.75F FOG     WCI  19
MOORHEAD       CLOUDY    30  30 100 S20       29.74F FOG     WCI  18
FERGUS FALLS   CLOUDY    30  28  93 S14       29.79F FOG     WCI  20
ELBOW LAKE     CLOUDY    30  29  99 S16       29.75F FOG     WCI  18
MORRIS MN      CLOUDY    30  30 100 SE10      29.76F FOG     WCI  21
STAPLES        CLOUDY    28  28 100 S9        29.79S FOG     WCI  20
WHEATON        CLOUDY    28  27  93 SE12      29.76F FOG     WCI  18
$$
  *****  WEATHER ELSEWHERE ACROSS MINNESOTA  *****

CITY           SKY/WX    TMP DP  RH WIND       PRES   REMARKS
DULUTH         FRZ DRZL  30  27  88 S12       29.87S FOG     WCI  20
INTRNTL FALLS  CLOUDY    29  26  89 VRB5      29.79F FOG     WCI  24
ELY            CLOUDY    28  27  93 S10       29.85F WCI  19
CLOQUET        CLOUDY    30  28  93 S6        29.87S FOG     WCI  24
BRAINERD       CLOUDY    30  29  96 S13       29.81F FOG     WCI  20
HIBBING        CLOUDY    30  26  85 S7        29.83F WCI  23
ALEXANDRIA     FOG       30  29  96 S16       29.78F VSB 1/2 WCI  19
SAINT CLOUD    FOG       34  31  88 SE10      29.84F VSB 1/2
MINNEAPOLIS    LGTSLEET  34  32  92 SE16G23   29.88F FOG     WCI  24
$$

  *****  WEATHER ACROSS SOUTH DAKOTA  *****

CITY           SKY/WX    TMP DP  RH WIND       PRES   REMARKS
SIOUX FALLS    FOG       32  32 100 S13       29.75S VSB 1/8 WCI  22
BROOKINGS      NOT AVBL
WATERTOWN      FOG       30  29  96 S12       29.69F VSB 1/2 WCI  20
HURON          FOG       30  30 100 S8        29.70F VSB 1/2 WCI  22
SISSETON         N/A     30  29  96 S9        29.70F WCI  22
ABERDEEN       FOG       31  30  96 S13       29.67F VSB 1/2 WCI  21
MITCHELL       FOG       31  31 100 SE14      29.71F VSB 1/4 WCI  21
PIERRE         CLEAR     24  22  91 SE7       29.59F WCI  16
MOBRIDGE       CLEAR     25  22  88 E7        29.57F WCI  17
RAPID CITY     PTCLDY    25  18  74 CALM      29.50F
$$

  *****  SOME WEATHER IN NEARBY STATES *****

CITY           SKY/WX    TMP DP  RH WIND       PRES   REMARKS
GLASGOW MT     CLOUDY    26  22  84 E15       29.35F WCI  14
GREAT FALLS MT MOCLDY    42  33  70 SW24G31   29.33F
CHEYENNE WY    CLOUDY    40  18  41 SW18G30   29.65F
SCOTTSBLUFF NE MOCLDY    23  18  81 E8        29.62F WCI  14
OMAHA NE       CLOUDY    38  36  92 S16       29.88F FOG
DES MOINES IA  CLOUDY    39  34  82 S18G26    29.96F
DAVENPORT IA   CLOUDY    36  32  85 S13       30.11F
CHICAGO IL     CLOUDY    33  27  78 S12       30.19F WCI  24
EAU CLAIRE WI  CLOUDY    32  29  88 SE12      29.96F FOG     WCI  23
LA CROSSE WI   CLOUDY    36  33  89 S12       29.99F FOG
$$

  *****  SOME NATIONAL WEATHER *****

CITY           SKY/WX    TMP DP  RH WIND       PRES   REMARKS
LA GUARDIA NY  CLOUDY    33  27  78 N6        30.32R
RALEIGH NC     CLOUDY    40  34  79 E5        30.33R
ATLANTA GA     CLOUDY    46  45  93 E7        30.20R FOG
NEW ORLEANS LA CLOUDY    54  48  80 E7        30.11S
OKLAHOMA CITY  CLOUDY    45  41  86 S14       29.99F FOG
ALBUQUERQUE NM MOCLDY    30  24  78 CALM      30.05R
SALT LAKE CITY LGT RAIN  39  36  89 SE9       29.98S
LOS ANGELES CA PTCLDY    52  47  83 E3        30.13S
BOISE ID       CLOUDY    43  40  89 E5        29.84S
SEATTLE WA     CLOUDY    51  46  83 SW14      29.79R
$$

*** WEATHER ACROSS MANITOBA...SASKATCHEWAN AND ONTARIO ***
                ***ONTARIO***

CITY           SKY/WX    TMP DP  RH WIND       PRES   REMARKS
GERALDTON      LGT SNOW  28  27  93 SE5       29.99S WCI  23
THUNDER BAY    NOT AVBL
SIOUX LOOKOUT  NOT AVBL
TORONTO        PTSUNNY   30  23  74 W3        30.32R
BIG TROUT LK   CLOUDY    27  27 100 S10       29.84F WCI  17
PICKLE LAKE    FRZ DRZL  27  25  93 S6        29.84F WCI  20
DRYDEN         FLURRIES  28  27  93 S12G17    29.78F WCI  18
KENORA         LGT SNOW  27  25  93 S10G17    29.73F DRFTSNOWWCI  17
$$
                *** MANITOBA***

CITY           SKY/WX    TMP DP  RH WIND       PRES   REMARKS
BRANDON        FOG       27  27 100 SE3       29.57F VSB 1/8
DAUPHIN        LGT SNOW  25  25 100 SE3       29.58F
ISLAND LAKE    FLURRIES  25  25 100 SE8       29.72F WCI  16
PILOT MOUND      N/A     18  16  93 CALM        N/A
THE PAS        LGT SNOW  21  21 100 SE9       29.58F WCI  11
THOMPSON       NOT AVBL
WINNIPEG       NOT AVBL
LYNN LAKE      LGT SNOW  12  10  92 VRB2      29.63S
GILLAM         FRZ DRZL  21  19  93 SW7       29.75S WCI  13
$$
                ***SASKATCHEWAN***

CITY           SKY/WX    TMP DP  RH WIND       PRES   REMARKS
ESTEVAN        PTCLDY    16  14  93 E9        29.47F WCI   4
KINDERSLEY     MOCLDY    21  18  86 E8        29.25F WCI  12
LLOYDMINSTER   SNOW      16  14  93 E13       29.31F VSB 3/8 WCI   2
PRINCE ALBERT  FOG       21  19  93 E6        29.47F VSB 1   WCI  14
REGINA         PTCLDY    14  12  92 SE12      29.42F WCI   0
YORKTON        FOG       27  27 100 SE9       29.50S VSB 1/4 WCI  17
N. BATTLEFORD  FRZ RAIN  19  18  93 E17       29.38F VSB 5/8 WCI   4


USA.gov is the U.S. government's official web portal to all federal, state and local government web resources and services.